Location: ?ern� Novina
(50.6762°N, 14.8696°E)
Time: 13:54:20
(UTC+00:00)

SJ 16-02 - Pass Details

Date: 03 March 2021
Orbit: 605 x 617 km, 75.0° (Epoch: 11 April)

Event Time Altitude Azimuth Distance (km) Brightness Sun altitude
Rises 19:33:51 0° 335° (NNW) 2,885 5.5 -26.9°
Reaches altitude 10° 19:36:06 10° 334° (NNW) 1,977 4.6 -27.2°
Enters shadow 19:39:33 52° 313° (NW) 767 2.0 -27.7°
